Simultaneous Nadir Overpasses (SNOs) Predictions

Prediction of SNOs between METOP-A and TERRA Satellite Orbit:

Table of predicted SNOs for the next 14.0 days since TLE Epoch: 10/5/2013
Index Date (METOP-A) Time (METOP-A) Lat,Lon (METOP-A) SZA (METOP-A ) Date (TERRA) Time (TERRA) Lat,Lon (TERRA) SZA (TERRA ) Distance(km) Time Diff (sec)
1 10/06/2013 02:38:41 81.31,-172.71 89.49 10/06/2013 02:39:40 81.31,-172.84 89.50 2.15 59
2 10/06/2013 03:29:21 -81.31, -5.22 90.49 10/06/2013 03:29:07 -81.30, -5.31 90.51 1.60 14
3 10/08/2013 22:13:05 81.30,-106.66 90.53 10/08/2013 22:13:52 81.30,-106.46 90.58 3.25 47
4 10/08/2013 23:03:44 -81.31, 61.26 89.38 10/08/2013 23:03:19 -81.30, 61.10 89.42 2.99 25
5 10/11/2013 17:47:27 81.31, -39.85 91.66 10/11/2013 17:48:03 81.31, -39.85 91.68 0.54 36
6 10/11/2013 18:38:07 -81.31, 127.72 88.30 10/11/2013 18:37:30 -81.31, 127.74 88.32 0.40 37
7 10/14/2013 13:21:49 81.31, 26.53 92.72 10/14/2013 13:22:13 81.31, 26.63 92.75 1.71 24
8 10/14/2013 14:12:29 -81.31,-165.85 87.23 10/14/2013 14:11:40 -81.31,-165.76 87.24 1.65 49
9 10/17/2013 08:56:12 81.31, 92.88 93.76 10/17/2013 08:56:24 81.31, 92.96 93.78 1.29 12




NCC Satellite Simultaneous Nadir Overpasses (SNOs) Prediction Service
